This demonstration page uses our WeatherBlox Daily Observations layout. Learn more.

Left ArrowRight Arrow

31.31129, -92.44514

Hourly Observations for December 18, 2020

Temp ( °F °C ) Dew Point ( °F °C ) Humidity (%) Winds ( mph kmh ) Pressure ( in mb ) Visibility ( mi km ) Precip ( " mm )
12:53 am 00:53 Clear 33 0.6 33 0.6 100 100 Calm 30.34 1027 8 13 0.00 0.00
1:53 am 01:53 Clear 33 0.6 32 0 96 96 SSW 3 6 30.35 1028 6 10 0.00 0.00
2:53 am 02:53 Clear 31 -0.6 31 -0.6 100 100 Calm 30.34 1027 6 10 0.00 0.00
3:53 am 03:53 Clear 31 -0.6 30 -1.1 96 96 W 3 6 30.33 1027 5 8 0.00 0.00
4:20 am 04:20 Clear 30 -1.1 30 -1.1 100 100 Calm 30.33 1027 2 3 0.00 0.00
4:30 am 04:30 Clear 30 -1.1 30 -1.1 100 100 N 3 6 30.32 1027 6 10 0.00 0.00
4:53 am 04:53 Clear 30 -1.1 30 -1.1 100 100 Calm 30.33 1027 6 10 0.00 0.00
5:53 am 05:53 Clear 30 -1.1 28 -2.2 92 92 Calm 30.35 1028 5 8 0.00 0.00
6:53 am 06:53 Clear 32 0 30 -1.1 92 92 E 6 9 30.35 1028 6 10 0.00 0.00
7:53 am 07:53 Sunny 32 0 32 0 100 100 Calm 30.36 1028 6 10 0.00 0.00
8:53 am 08:53 Sunny 40 4.4 36 2.2 86 86 SE 7 11 30.37 1028 9 14 0.00 0.00
9:53 am 09:53 Sunny 45 7.2 37 2.8 74 74 SE 10 17 30.39 1029 10 16 0.00 0.00
10:53 am 10:53 Sunny 49 9.4 38 3.3 66 66 SSE 8 13 30.38 1029 10 16 0.00 0.00
11:53 am 11:53 Sunny 52 11.1 35 1.7 53 53 SSE 14 22 30.35 1028 10 16 0.00 0.00
12:53 pm 12:53 Sunny 54 12.2 36 2.2 51 51 SE 10 17 30.32 1027 10 16 0.00 0.00
1:53 pm 13:53 Sunny 56 13.3 36 2.2 47 47 SE 13 20 30.29 1026 10 16 0.00 0.00
2:53 pm 14:53 Sunny 57 13.9 37 2.8 47 47 SE 12 19 30.29 1026 10 16 0.00 0.00
3:53 pm 15:53 Sunny 57 13.9 37 2.8 47 47 SSE 9 15 30.28 1026 10 16 0.00 0.00
4:53 pm 16:53 Sunny 52 11.1 37 2.8 57 57 SSE 8 13 30.28 1025 10 16 0.00 0.00
5:53 pm 17:53 Clear 48 8.9 36 2.2 63 63 SE 5 7 30.27 1025 10 16 0.00 0.00
6:53 pm 18:53 Clear 47 8.3 36 2.2 66 66 E 7 11 30.27 1025 10 16 0.00 0.00
7:53 pm 19:53 Clear 48 8.9 37 2.8 66 66 E 10 17 30.26 1025 10 16 0.00 0.00
8:53 pm 20:53 Clear 47 8.3 36 2.2 66 66 SE 10 17 30.27 1025 10 16 0.00 0.00
9:53 pm 21:53 Mostly Clear 46 7.8 37 2.8 71 71 SE 12 19 30.25 1024 10 16 0.00 0.00
10:53 pm 22:53 Cloudy 47 8.3 39 3.9 74 74 SE 12 19 30.24 1024 10 16 0.00 0.00
11:53 pm 23:53 Cloudy 47 8.3 41 5 80 80 SE 9 15 30.22 1023 10 16 0.00 0.00

Powered by AerisWeather